EWG493 LQSA-EDDK

Flight info

Callsign EWG493
Flight time 1h 36m
Altitude 38000
Route BOSNA DCT OKSIG DCT KOMAR DCT KUSIB DCT GORPA DCT MODSA DCT VEKIR DCT UMDAS T844 ASKIK T840 GULKO GULKO1B
Aircraft A319/M-SDE3FGHIRWY/LB1

Departure

Time 2026-05-06 19:50
Airport Sarajevo International Airport (LQSA)

Arrival

Time 2026-05-06 21:27
Airport Cologne Bonn Airport (EDDK)
Time Latitude Longitude Altitude Speed Heading
2026-05-06 19:27 43.82541 18.33630 1691 ft 0 kts 27°
2026-05-06 19:43 43.82538 18.33628 1686 ft 3 kts 27°
2026-05-06 19:43 43.82515 18.33610 1687 ft 4 kts 34°
2026-05-06 19:44 43.82494 18.33587 1688 ft 4 kts 51°
2026-05-06 19:44 43.82484 18.33558 1687 ft 4 kts 105°
2026-05-06 19:44 43.82486 18.33551 1688 ft 0 kts 117°
2026-05-06 19:46 43.82483 18.33557 1687 ft 4 kts 117°
2026-05-06 19:46 43.82451 18.33644 1690 ft 13 kts 118°
2026-05-06 19:46 43.82403 18.33768 1689 ft 15 kts 118°
2026-05-06 19:47 43.82356 18.33896 1691 ft 14 kts 116°
2026-05-06 19:47 43.82315 18.34009 1697 ft 11 kts 117°
2026-05-06 19:47 43.82280 18.34102 1700 ft 10 kts 117°
2026-05-06 19:47 43.82248 18.34187 1703 ft 10 kts 117°
2026-05-06 19:48 43.82218 18.34268 1706 ft 9 kts 118°
2026-05-06 19:48 43.82187 18.34346 1707 ft 9 kts 118°
2026-05-06 19:48 43.82158 18.34425 1709 ft 9 kts 116°
2026-05-06 19:48 43.82130 18.34503 1711 ft 9 kts 116°
2026-05-06 19:49 43.82100 18.34578 1712 ft 9 kts 126°
2026-05-06 19:49 43.82051 18.34625 1714 ft 9 kts 161°
2026-05-06 19:49 43.81958 18.34592 1715 ft 14 kts 219°
2026-05-06 19:49 43.81979 18.34427 1712 ft 34 kts 295°
2026-05-06 19:50 43.82194 18.33854 1702 ft 98 kts 297°
2026-05-06 19:50 43.82586 18.32789 1681 ft 150 kts 296°
2026-05-06 19:50 43.83090 18.31417 2084 ft 158 kts 296°
2026-05-06 19:50 43.83743 18.30196 2653 ft 165 kts 326°
2026-05-06 19:51 43.84861 18.29743 3136 ft 173 kts 347°
2026-05-06 19:51 43.86079 18.29330 3388 ft 194 kts 344°
2026-05-06 19:51 43.87464 18.28809 3645 ft 219 kts 344°
2026-05-06 19:51 43.89009 18.28207 4133 ft 240 kts 344°
2026-05-06 19:52 43.90653 18.27559 4904 ft 251 kts 341°
2026-05-06 19:52 43.92362 18.26877 5738 ft 259 kts 340°
2026-05-06 19:52 43.94108 18.26179 6645 ft 263 kts 340°
2026-05-06 19:52 43.95917 18.25617 7476 ft 273 kts 350°
2026-05-06 19:53 43.97881 18.25335 8041 ft 290 kts 352°
2026-05-06 19:53 43.99912 18.25073 8898 ft 295 kts 353°
2026-05-06 19:53 44.01971 18.24819 9802 ft 298 kts 353°
2026-05-06 19:53 44.04044 18.24526 10616 ft 301 kts 348°
2026-05-06 19:54 44.06050 18.23682 11392 ft 303 kts 333°
2026-05-06 19:54 44.07869 18.22130 11888 ft 316 kts 318°
2026-05-06 19:54 44.09440 18.19864 12158 ft 335 kts 308°
2026-05-06 19:54 44.10990 18.17367 12762 ft 344 kts 308°
2026-05-06 19:55 44.12574 18.14843 13482 ft 349 kts 308°
2026-05-06 19:55 44.14187 18.12291 14157 ft 353 kts 308°
2026-05-06 19:55 44.15821 18.09718 14824 ft 356 kts 309°
2026-05-06 19:55 44.17472 18.07118 15452 ft 360 kts 308°
2026-05-06 19:56 44.19136 18.04492 16120 ft 363 kts 308°
2026-05-06 19:56 44.20810 18.01845 16785 ft 366 kts 308°
2026-05-06 19:56 44.22498 17.99170 17456 ft 369 kts 308°
2026-05-06 19:56 44.24198 17.96475 18125 ft 372 kts 308°
2026-05-06 19:57 44.25909 17.93758 18717 ft 374 kts 308°
2026-05-06 19:57 44.27628 17.91029 19283 ft 375 kts 308°
2026-05-06 19:57 44.29354 17.88285 19845 ft 377 kts 308°
2026-05-06 19:57 44.31085 17.85523 20467 ft 379 kts 308°
2026-05-06 19:58 44.32803 17.82781 21055 ft 381 kts 308°
2026-05-06 19:58 44.34551 17.79987 21664 ft 383 kts 307°
2026-05-06 19:58 44.36303 17.77184 22255 ft 384 kts 308°
2026-05-06 19:58 44.38070 17.74357 22811 ft 387 kts 308°
2026-05-06 19:59 44.39844 17.71514 23408 ft 388 kts 308°
2026-05-06 19:59 44.41621 17.68664 23889 ft 390 kts 308°
2026-05-06 19:59 44.43406 17.65794 24345 ft 392 kts 308°
2026-05-06 19:59 44.45200 17.62907 24801 ft 394 kts 308°
2026-05-06 20:00 44.47001 17.60007 25242 ft 396 kts 307°
2026-05-06 20:00 44.48811 17.57091 25684 ft 398 kts 307°
2026-05-06 20:00 44.50631 17.54157 26139 ft 400 kts 307°
2026-05-06 20:00 44.52462 17.51202 26566 ft 402 kts 307°
2026-05-06 20:01 44.54300 17.48234 26987 ft 405 kts 307°
2026-05-06 20:01 44.56149 17.45242 27403 ft 407 kts 306°
2026-05-06 20:01 44.58004 17.42233 27824 ft 409 kts 306°
2026-05-06 20:01 44.59873 17.39205 28236 ft 411 kts 306°
2026-05-06 20:02 44.61751 17.36162 28648 ft 413 kts 306°
2026-05-06 20:02 44.63612 17.33144 29031 ft 415 kts 306°
2026-05-06 20:02 44.65502 17.30076 29466 ft 416 kts 306°
2026-05-06 20:02 44.67397 17.26994 29912 ft 417 kts 306°
2026-05-06 20:03 44.69292 17.23903 30266 ft 419 kts 305°
2026-05-06 20:03 44.71198 17.20783 30576 ft 421 kts 305°
2026-05-06 20:03 44.73108 17.17653 30923 ft 423 kts 305°
2026-05-06 20:03 44.75026 17.14511 31266 ft 424 kts 305°
2026-05-06 20:04 44.76949 17.11365 31601 ft 425 kts 305°
2026-05-06 20:04 44.78874 17.08217 32032 ft 423 kts 304°
2026-05-06 20:04 44.80787 17.05086 32526 ft 420 kts 304°
2026-05-06 20:04 44.82686 17.01972 32999 ft 418 kts 304°
2026-05-06 20:05 44.84573 16.98873 33489 ft 415 kts 304°
2026-05-06 20:05 44.86453 16.95797 33998 ft 413 kts 303°
2026-05-06 20:05 44.88329 16.92729 34366 ft 413 kts 304°
2026-05-06 20:05 44.90202 16.89661 34717 ft 413 kts 304°
2026-05-06 20:06 44.92073 16.86583 35041 ft 413 kts 304°
2026-05-06 20:06 44.93939 16.83500 35349 ft 414 kts 304°
2026-05-06 20:06 44.95811 16.80408 35673 ft 414 kts 305°
2026-05-06 20:06 44.97658 16.77300 36001 ft 413 kts 304°
2026-05-06 20:07 44.99473 16.74160 36317 ft 412 kts 303°
2026-05-06 20:07 45.01269 16.71002 36635 ft 412 kts 303°
2026-05-06 20:07 45.03032 16.67879 36935 ft 412 kts 303°
2026-05-06 20:07 45.04822 16.64707 37181 ft 414 kts 303°
2026-05-06 20:08 45.06623 16.61528 37412 ft 415 kts 304°
2026-05-06 20:08 45.08434 16.58344 37686 ft 415 kts 304°
2026-05-06 20:08 45.10250 16.55165 37898 ft 416 kts 304°
2026-05-06 20:08 45.12068 16.51986 37942 ft 416 kts 304°
2026-05-06 20:09 45.15698 16.45613 37942 ft 416 kts 304°
2026-05-06 20:09 45.19327 16.39238 37939 ft 416 kts 304°
2026-05-06 20:10 45.22961 16.32839 37935 ft 418 kts 304°
2026-05-06 20:10 45.26600 16.26407 37934 ft 419 kts 304°
2026-05-06 20:11 45.30288 16.19868 37935 ft 429 kts 304°
2026-05-06 20:11 45.34052 16.13181 37932 ft 436 kts 304°
2026-05-06 20:12 45.37847 16.06430 37963 ft 438 kts 304°
2026-05-06 20:12 45.41652 15.99665 37934 ft 438 kts 304°
2026-05-06 20:13 45.45459 15.92888 37931 ft 438 kts 304°
2026-05-06 20:13 45.49255 15.86093 37935 ft 438 kts 304°
2026-05-06 20:14 45.53044 15.79281 37936 ft 438 kts 304°
2026-05-06 20:14 45.56806 15.72507 37951 ft 439 kts 303°
2026-05-06 20:15 45.60596 15.65680 37943 ft 439 kts 303°
2026-05-06 20:15 45.64377 15.58842 37937 ft 439 kts 303°
2026-05-06 20:16 45.68160 15.51993 37938 ft 439 kts 303°
2026-05-06 20:16 45.71936 15.45130 37945 ft 439 kts 303°
2026-05-06 20:17 45.75703 15.38262 37947 ft 439 kts 303°
2026-05-06 20:17 45.79551 15.31470 37945 ft 441 kts 306°
2026-05-06 20:18 45.83699 15.24971 37942 ft 442 kts 308°
2026-05-06 20:18 45.87906 15.18535 37940 ft 442 kts 308°
2026-05-06 20:19 45.92056 15.12026 37945 ft 442 kts 307°
2026-05-06 20:19 45.96170 15.05445 37929 ft 443 kts 306°
2026-05-06 20:20 46.00282 14.98836 37921 ft 444 kts 307°
2026-05-06 20:20 46.04404 14.92219 37923 ft 444 kts 307°
2026-05-06 20:21 46.08503 14.85647 37931 ft 444 kts 307°
2026-05-06 20:21 46.12634 14.79014 37932 ft 445 kts 307°
2026-05-06 20:22 46.16763 14.72347 37933 ft 446 kts 307°
2026-05-06 20:22 46.20892 14.65657 37933 ft 447 kts 307°
2026-05-06 20:23 46.24331 14.60089 37956 ft 447 kts 306°
2026-05-06 20:23 46.28465 14.53381 37974 ft 447 kts 307°
2026-05-06 20:24 46.32602 14.46646 37940 ft 448 kts 307°
2026-05-06 20:24 46.36736 14.39898 37931 ft 449 kts 307°
2026-05-06 20:25 46.40883 14.33109 37912 ft 449 kts 307°
2026-05-06 20:25 46.45029 14.26317 37909 ft 450 kts 307°
2026-05-06 20:26 46.49174 14.19502 37932 ft 451 kts 307°
2026-05-06 20:26 46.53321 14.12673 37934 ft 451 kts 306°
2026-05-06 20:27 46.57444 14.05862 37923 ft 452 kts 306°
2026-05-06 20:27 46.61595 13.98990 37918 ft 452 kts 306°
2026-05-06 20:28 46.65742 13.92102 37920 ft 452 kts 306°
2026-05-06 20:28 46.69882 13.85194 37937 ft 453 kts 306°
2026-05-06 20:29 46.74019 13.78267 37935 ft 453 kts 306°
2026-05-06 20:29 46.78155 13.71334 37936 ft 453 kts 306°
2026-05-06 20:30 46.84362 13.60918 37943 ft 453 kts 306°
2026-05-06 20:31 46.88500 13.53961 37966 ft 454 kts 306°
2026-05-06 20:31 46.92644 13.46982 37935 ft 454 kts 306°
2026-05-06 20:32 46.96778 13.39978 37921 ft 455 kts 306°
2026-05-06 20:32 47.00910 13.32957 37928 ft 456 kts 306°
2026-05-06 20:33 47.05019 13.25965 37920 ft 455 kts 305°
2026-05-06 20:33 47.09153 13.18893 37919 ft 457 kts 305°
2026-05-06 20:34 47.13295 13.11797 37889 ft 458 kts 305°
2026-05-06 20:34 47.17447 13.04684 37891 ft 458 kts 305°
2026-05-06 20:35 47.21598 12.97554 37885 ft 459 kts 305°
2026-05-06 20:35 47.25750 12.90395 37910 ft 460 kts 305°
2026-05-06 20:36 47.29899 12.83215 37885 ft 460 kts 305°
2026-05-06 20:36 47.34050 12.76014 37879 ft 461 kts 305°
2026-05-06 20:37 47.38202 12.68806 37875 ft 462 kts 305°
2026-05-06 20:37 47.42330 12.61620 37877 ft 462 kts 305°
2026-05-06 20:38 47.46481 12.54362 37885 ft 462 kts 305°
2026-05-06 20:38 47.50629 12.47089 37868 ft 463 kts 305°
2026-05-06 20:39 47.54789 12.39786 37870 ft 464 kts 305°
2026-05-06 20:39 47.58951 12.32456 37882 ft 465 kts 305°
2026-05-06 20:40 47.63104 12.25104 37874 ft 466 kts 305°
2026-05-06 20:40 47.67105 12.17568 37891 ft 464 kts 301°
2026-05-06 20:41 47.70823 12.09746 37886 ft 463 kts 300°
2026-05-06 20:41 47.74470 12.01929 37887 ft 464 kts 300°
2026-05-06 20:42 47.78205 11.94107 37893 ft 464 kts 301°
2026-05-06 20:42 47.81967 11.86303 37926 ft 464 kts 301°
2026-05-06 20:43 47.85724 11.78464 37895 ft 465 kts 300°
2026-05-06 20:43 47.89476 11.70601 37895 ft 466 kts 300°
2026-05-06 20:44 47.93236 11.62711 37895 ft 467 kts 300°
2026-05-06 20:44 47.96988 11.54802 37906 ft 467 kts 300°
2026-05-06 20:45 48.00735 11.46868 37928 ft 468 kts 300°
2026-05-06 20:45 48.04477 11.38913 37925 ft 468 kts 300°
2026-05-06 20:46 48.08197 11.30988 37922 ft 469 kts 300°
2026-05-06 20:46 48.11943 11.23001 37907 ft 469 kts 300°
2026-05-06 20:47 48.15680 11.15002 37926 ft 469 kts 300°
2026-05-06 20:47 48.19418 11.06983 37904 ft 470 kts 300°
2026-05-06 20:48 48.23159 10.98943 37895 ft 470 kts 300°
2026-05-06 20:48 48.26890 10.90888 37892 ft 470 kts 300°
2026-05-06 20:49 48.30614 10.82808 37894 ft 470 kts 300°
2026-05-06 20:49 48.34334 10.74714 37917 ft 470 kts 300°
2026-05-06 20:50 48.38048 10.66622 37916 ft 470 kts 300°
2026-05-06 20:50 48.41763 10.58528 37913 ft 470 kts 300°
2026-05-06 20:51 48.45462 10.50422 37907 ft 469 kts 300°
2026-05-06 20:51 48.49150 10.42305 37909 ft 469 kts 300°
2026-05-06 20:52 48.52816 10.34221 37915 ft 470 kts 300°
2026-05-06 20:52 48.56500 10.26065 37901 ft 470 kts 300°
2026-05-06 20:53 48.60182 10.17890 37895 ft 471 kts 300°
2026-05-06 20:53 48.63862 10.09700 37897 ft 471 kts 300°
2026-05-06 20:54 48.67536 10.01500 37917 ft 471 kts 300°
2026-05-06 20:54 48.71209 9.93282 37894 ft 471 kts 300°
2026-05-06 20:55 48.75508 9.85710 37877 ft 477 kts 310°
2026-05-06 20:55 48.80105 9.78462 37872 ft 477 kts 310°
2026-05-06 20:56 48.84695 9.71192 37875 ft 477 kts 310°
2026-05-06 20:56 48.89277 9.63899 37893 ft 477 kts 310°
2026-05-06 20:57 48.93854 9.56593 37889 ft 477 kts 310°
2026-05-06 20:57 48.98422 9.49279 37880 ft 477 kts 310°
2026-05-06 20:58 49.02985 9.41953 37876 ft 476 kts 310°
2026-05-06 20:58 49.07511 9.34668 37872 ft 476 kts 310°
2026-05-06 20:59 49.12050 9.27334 37856 ft 469 kts 310°
2026-05-06 20:59 49.16443 9.20228 37861 ft 455 kts 310°
2026-05-06 21:00 49.20781 9.13204 37813 ft 454 kts 310°
2026-05-06 21:00 49.22941 9.09686 37538 ft 453 kts 310°
2026-05-06 21:00 49.25102 9.06158 37271 ft 453 kts 310°
2026-05-06 21:00 49.27262 9.02637 37012 ft 454 kts 310°
2026-05-06 21:01 49.29421 8.99115 36753 ft 454 kts 310°
2026-05-06 21:01 49.31585 8.95579 36500 ft 455 kts 310°
2026-05-06 21:01 49.33748 8.92037 36268 ft 455 kts 310°
2026-05-06 21:01 49.35907 8.88499 36029 ft 454 kts 311°
2026-05-06 21:02 49.38239 8.85222 35783 ft 457 kts 320°
2026-05-06 21:02 49.40908 8.82555 35539 ft 459 kts 330°
2026-05-06 21:02 49.43840 8.80575 35021 ft 464 kts 340°
2026-05-06 21:02 49.46955 8.79177 34449 ft 465 kts 343°
2026-05-06 21:03 49.50058 8.77843 33959 ft 463 kts 343°
2026-05-06 21:03 49.53152 8.76500 33389 ft 460 kts 343°
2026-05-06 21:03 49.56217 8.75158 32894 ft 456 kts 343°
2026-05-06 21:03 49.59256 8.73821 32367 ft 452 kts 343°
2026-05-06 21:04 49.62268 8.72492 31863 ft 449 kts 343°
2026-05-06 21:04 49.65222 8.71189 31344 ft 445 kts 344°
2026-05-06 21:04 49.68224 8.69863 30837 ft 441 kts 344°
2026-05-06 21:04 49.71129 8.68581 30343 ft 438 kts 344°
2026-05-06 21:05 49.74043 8.67290 29832 ft 435 kts 345°
2026-05-06 21:05 49.76938 8.66005 29314 ft 430 kts 345°
2026-05-06 21:05 49.79791 8.64737 28837 ft 424 kts 344°
2026-05-06 21:05 49.82607 8.63486 28375 ft 419 kts 344°
2026-05-06 21:06 49.85391 8.62251 27917 ft 414 kts 344°
2026-05-06 21:06 49.88147 8.61024 27471 ft 409 kts 344°
2026-05-06 21:06 49.90873 8.59808 27053 ft 405 kts 344°
2026-05-06 21:06 49.93569 8.58604 26629 ft 401 kts 344°
2026-05-06 21:07 49.96238 8.57411 26217 ft 398 kts 344°
2026-05-06 21:07 49.98894 8.56222 25803 ft 395 kts 344°
2026-05-06 21:07 50.01523 8.55048 25383 ft 393 kts 344°
2026-05-06 21:07 50.04143 8.53879 24970 ft 390 kts 343°
2026-05-06 21:08 50.06735 8.52682 24564 ft 387 kts 342°
2026-05-06 21:08 50.09283 8.51377 24154 ft 385 kts 340°
2026-05-06 21:08 50.11800 8.50002 23719 ft 382 kts 340°
2026-05-06 21:08 50.14304 8.48601 23276 ft 380 kts 339°
2026-05-06 21:09 50.16779 8.47216 22825 ft 376 kts 339°
2026-05-06 21:09 50.19203 8.45873 22396 ft 373 kts 340°
2026-05-06 21:09 50.21637 8.44540 21976 ft 368 kts 340°
2026-05-06 21:09 50.24042 8.43231 21544 ft 365 kts 340°
2026-05-06 21:10 50.26433 8.41936 21106 ft 361 kts 340°
2026-05-06 21:10 50.28777 8.40581 20666 ft 358 kts 334°
2026-05-06 21:10 50.30931 8.38694 20243 ft 353 kts 326°
2026-05-06 21:10 50.32996 8.36631 19813 ft 350 kts 326°
2026-05-06 21:11 50.35041 8.34587 19390 ft 348 kts 326°
2026-05-06 21:11 50.37070 8.32561 18979 ft 345 kts 325°
2026-05-06 21:11 50.39089 8.30545 18547 ft 342 kts 325°
2026-05-06 21:11 50.41093 8.28546 18110 ft 340 kts 325°
2026-05-06 21:12 50.43078 8.26564 17655 ft 337 kts 325°
2026-05-06 21:12 50.45042 8.24604 17237 ft 333 kts 325°
2026-05-06 21:12 50.46983 8.22662 16829 ft 329 kts 325°
2026-05-06 21:12 50.48901 8.20737 16420 ft 326 kts 325°
2026-05-06 21:13 50.50802 8.18828 16007 ft 323 kts 325°
2026-05-06 21:13 50.52664 8.16958 15620 ft 321 kts 325°
2026-05-06 21:13 50.54538 8.15071 15219 ft 318 kts 325°
2026-05-06 21:13 50.56395 8.13199 14824 ft 316 kts 325°
2026-05-06 21:14 50.58241 8.11338 14432 ft 314 kts 325°
2026-05-06 21:14 50.60078 8.09483 14039 ft 313 kts 325°
2026-05-06 21:14 50.61908 8.07635 13631 ft 312 kts 325°
2026-05-06 21:14 50.63729 8.05791 13191 ft 310 kts 325°
2026-05-06 21:15 50.65538 8.03955 12793 ft 308 kts 325°
2026-05-06 21:15 50.67329 8.02134 12400 ft 305 kts 325°
2026-05-06 21:15 50.69111 8.00325 12008 ft 303 kts 325°
2026-05-06 21:15 50.70877 7.98525 11621 ft 301 kts 325°
2026-05-06 21:16 50.72583 7.96630 11232 ft 298 kts 316°
2026-05-06 21:16 50.73896 7.94130 10848 ft 296 kts 302°
2026-05-06 21:16 50.74682 7.91132 10465 ft 297 kts 285°
2026-05-06 21:16 50.74874 7.87894 10073 ft 298 kts 268°
2026-05-06 21:17 50.74599 7.84669 9797 ft 294 kts 263°
2026-05-06 21:17 50.74308 7.81498 9615 ft 292 kts 263°
2026-05-06 21:17 50.74117 7.79372 9168 ft 298 kts 263°
2026-05-06 21:17 50.73833 7.76183 8915 ft 291 kts 264°
2026-05-06 21:18 50.73552 7.73021 8552 ft 289 kts 264°
2026-05-06 21:18 50.73275 7.69904 8053 ft 285 kts 264°
2026-05-06 21:18 50.72999 7.66819 7475 ft 282 kts 263°
2026-05-06 21:18 50.72724 7.63772 6907 ft 279 kts 264°
2026-05-06 21:19 50.72451 7.60754 6358 ft 276 kts 263°
2026-05-06 21:19 50.72178 7.57765 5707 ft 276 kts 263°
2026-05-06 21:19 50.71900 7.54754 5024 ft 276 kts 263°
2026-05-06 21:19 50.71630 7.51822 4674 ft 265 kts 264°
2026-05-06 21:20 50.71355 7.49009 4279 ft 255 kts 263°
2026-05-06 21:20 50.71083 7.46305 4010 ft 244 kts 263°
2026-05-06 21:20 50.70820 7.43736 3753 ft 231 kts 264°
2026-05-06 21:20 50.70597 7.41302 3490 ft 216 kts 271°
2026-05-06 21:21 50.70779 7.39047 3238 ft 200 kts 291°
2026-05-06 21:21 50.71370 7.37159 3045 ft 183 kts 308°
2026-05-06 21:21 50.72198 7.35753 2994 ft 170 kts 320°
2026-05-06 21:21 50.73093 7.34472 2992 ft 175 kts 319°
2026-05-06 21:22 50.74001 7.33173 2992 ft 177 kts 319°
2026-05-06 21:22 50.74904 7.31892 3000 ft 177 kts 320°
2026-05-06 21:22 50.75822 7.30601 3002 ft 177 kts 320°
2026-05-06 21:22 50.76746 7.29277 2890 ft 177 kts 318°
2026-05-06 21:23 50.77631 7.27933 2681 ft 175 kts 318°
2026-05-06 21:23 50.78473 7.26673 2375 ft 160 kts 318°
2026-05-06 21:23 50.79219 7.25558 2121 ft 137 kts 319°
2026-05-06 21:23 50.79898 7.24596 1812 ft 126 kts 321°
2026-05-06 21:24 50.80538 7.23697 1576 ft 121 kts 320°
2026-05-06 21:24 50.81164 7.22798 1407 ft 122 kts 319°
2026-05-06 21:24 50.81782 7.21899 1255 ft 120 kts 319°
2026-05-06 21:24 50.82408 7.21004 1087 ft 122 kts 320°
2026-05-06 21:25 50.83048 7.20123 960 ft 121 kts 320°
2026-05-06 21:25 50.83672 7.19213 745 ft 125 kts 316°
2026-05-06 21:25 50.84298 7.18297 647 ft 122 kts 320°
2026-05-06 21:25 50.84934 7.17402 519 ft 123 kts 319°
2026-05-06 21:26 50.85566 7.16491 410 ft 123 kts 319°
2026-05-06 21:26 50.86195 7.15590 312 ft 121 kts 319°
2026-05-06 21:26 50.86756 7.14785 268 ft 91 kts 316°
2026-05-06 21:26 50.87100 7.14283 251 ft 50 kts 317°
2026-05-06 21:27 50.87297 7.13858 241 ft 44 kts 286°
2026-05-06 21:27 50.87340 7.13506 233 ft 31 kts 285°
2026-05-06 21:27 50.87487 7.13259 233 ft 31 kts 318°
2026-05-06 21:27 50.87612 7.13081 233 ft 24 kts 316°
2026-05-06 21:28 50.87722 7.12919 233 ft 18 kts 317°
2026-05-06 21:28 50.87767 7.12853 232 ft 0 kts 317°
2026-05-06 21:28 50.87770 7.12848 232 ft 3 kts 317°
2026-05-06 21:29 50.87790 7.12791 235 ft 9 kts 271°
2026-05-06 21:29 50.87795 7.12665 234 ft 14 kts 293°
2026-05-06 21:29 50.87884 7.12612 232 ft 16 kts
2026-05-06 21:29 50.87972 7.12536 232 ft 13 kts 317°
2026-05-06 21:30 50.87971 7.12447 234 ft 6 kts 243°
2026-05-06 21:30 50.87961 7.12408 235 ft 0 kts 245°